Theta_e
307 307 307 307 308 308 309 309 310 311 312 314 317 317 314 311 312 320 322 321 321 321 320 332 337 338 333 332 333 339 348 359 350 350 344 343 339 341 344 348 344 341 353 359 356
308 308 309 309 309 309 309 310 311 314 315 317 319 319 317 313 320 324 325 324 319 318 326 327 334 334 331 331 333 338 351 345 344 343 341 338 339 339 346 345 343 337 339 356 355
309 310 310 310 310 311 311 311 313 316 317 317 319 321 317 318 330 332 327 324 319 316 322 326 331 331 329 331 335 341 347 348 346 342 338 338 337 340 346 349 345 345 342 355 354
310 310 310 311 311 311 312 312 314 316 319 318 320 320 316 325 334 337 326 327 317 318 328 330 329 327 327 330 335 340 339 344 341 340 339 338 338 337 337 344 344 340 346 351 355
309 310 310 311 311 312 313 313 314 317 319 319 321 317 325 335 331 325 321 315 315 321 328 327 327 327 327 330 335 338 339 338 340 340 339 337 336 337 344 343 340 344 348 354 354
309 310 310 311 311 311 313 313 314 317 319 321 320 317 329 335 329 322 320 319 319 327 327 326 326 327 328 331 333 335 339 340 338 339 337 337 339 338 339 339 350 355 355 354 354
309 309 309 310 311 311 312 313 314 316 318 322 319 323 331 332 329 328 322 324 325 329 327 325 326 328 329 332 334 333 334 339 339 338 338 335 342 340 337 334 346 351 352 352 354
308 308 308 310 310 311 312 313 313 316 318 322 320 327 332 328 327 328 327 329 329 327 326 327 327 330 333 333 336 338 337 340 339 338 337 336 342 341 337 338 348 349 350 351 353
307 308 308 309 310 311 312 313 313 319 319 322 327 331 331 326 327 326 329 329 327 326 325 328 332 333 334 335 337 337 339 337 342 343 336 335 344 347 342 343 349 348 350 350 352
307 308 309 309 310 311 313 314 319 320 327 327 328 332 332 331 328 327 328 329 328 326 326 328 330 334 333 335 340 335 338 342 346 341 336 334 335 347 342 342 345 349 350 350 351
307 308 309 310 311 311 313 321 330 335 329 331 331 324 329 331 329 329 327 328 328 327 326 327 329 331 332 334 334 335 337 336 344 339 336 335 335 338 342 342 340 350 352 352 350
306 308 309 310 311 312 313 326 321 319 322 323 324 325 324 329 332 329 326 327 328 329 327 327 327 329 331 331 331 334 334 335 336 336 336 336 334 338 344 341 340 342 349 350 350
306 307 309 311 311 314 320 321 319 320 323 323 324 324 324 325 329 330 328 327 329 330 330 328 328 328 327 328 328 330 332 334 334 334 336 336 336 336 341 337 340 340 347 346 348
306 307 308 310 315 319 319 321 318 320 323 323 324 324 324 324 323 325 328 328 330 331 331 331 330 328 326 326 326 327 331 331 331 332 334 335 338 341 342 341 338 341 343 343 346
305 306 307 308 312 318 320 319 318 321 326 325 324 323 324 322 325 324 329 329 330 331 330 331 330 327 326 326 326 325 330 331 332 332 332 333 333 343 344 342 339 338 341 343 346
306 307 307 314 317 317 317 317 319 323 324 325 325 324 324 323 323 325 328 330 331 331 331 330 329 328 327 327 327 327 328 331 331 329 331 332 333 341 344 345 340 339 341 346 359
306 307 308 310 318 317 317 318 321 324 324 323 324 324 323 324 323 324 324 329 331 331 331 332 329 328 328 327 328 328 329 332 333 332 333 337 333 341 343 344 342 344 345 355 359
307 308 308 309 313 316 317 319 324 325 323 324 324 324 324 324 325 324 325 328 330 331 332 333 333 329 329 327 327 329 330 332 337 337 338 346 345 348 345 343 340 342 346 356 356
307 313 315 315 313 316 319 320 322 324 325 323 323 322 323 323 325 325 326 327 330 330 335 332 332 332 330 329 328 328 329 330 332 332 337 345 343 340 340 343 345 345 345 354 355
309 314 317 317 317 316 319 319 320 321 323 322 321 321 322 323 324 325 327 328 329 330 330 332 333 331 330 331 330 328 329 331 329 335 337 339 340 345 351 348 348 347 346 354 358
313 321 318 317 316 318 318 318 319 320 321 320 321 321 322 322 325 325 325 328 328 329 330 330 331 331 330 329 329 329 327 330 332 333 335 339 347 349 345 346 347 349 348 352 357
315 319 319 318 318 317 319 318 318 320 321 320 319 320 321 323 324 326 326 327 329 328 329 329 329 331 332 329 329 330 330 331 335 341 336 338 349 343 347 344 347 348 352 353 355
317 319 320 319 320 318 318 318 319 319 320 319 319 319 321 322 324 326 327 327 328 328 330 330 330 331 333 332 331 330 329 331 334 341 342 338 338 343 342 346 350 351 354 357 357
318 318 319 320 320 319 320 321 320 320 320 320 320 320 319 321 323 325 327 327 328 328 343 335 336 334 332 334 336 332 331 330 333 336 334 333 348 345 347 350 348 353 354 359 359
318 319 321 321 319 319 319 322 324 321 320 320 320 320 321 322 322 323 326 330 327 330 330 333 344 336 332 334 335 336 334 331 329 332 332 335 339 348 348 344 339 342 361 360 360
318 319 320 321 322 324 321 320 324 325 322 321 319 321 321 325 325 326 325 328 329 330 333 334 341 338 336 334 333 334 334 332 329 328 330 331 346 341 339 338 337 344 358 358 357
312 313 316 318 320 321 324 324 321 323 324 321 323 322 321 324 324 325 325 331 331 332 336 338 339 345 340 334 334 336 333 335 331 330 331 342 346 342 343 345 341 359 355 354 353
Wind_Speed
13 14 14 15 15 16 16 17 18 18 17 14 12 12 9 8 9 6 10 5 10 9 9 8 13 15 14 15 16 14 5 3 3 17 7 12 3 6 23 29 23 29 6 23 24
14 14 15 16 17 18 19 19 20 18 15 13 14 12 10 9 10 16 13 11 10 9 14 12 11 12 11 13 11 11 6 8 13 20 11 12 1 9 17 26 11 11 11 18 23
14 15 16 17 18 20 21 23 19 18 15 14 13 11 7 5 8 2 13 16 12 13 13 13 10 11 12 14 14 15 10 31 23 4 10 9 13 5 27 17 10 19 12 13 17
14 15 16 17 19 21 22 24 19 19 16 13 12 9 1 3 3 5 9 11 13 15 14 12 12 10 12 14 15 14 15 26 9 6 10 12 16 10 6 12 17 25 17 15 15
15 15 17 18 19 22 22 25 20 19 16 12 10 3 2 6 4 3 9 12 16 16 16 11 12 11 13 15 14 13 14 17 8 12 11 6 10 12 23 21 21 15 16 16 13
15 16 17 19 20 22 22 24 21 20 15 9 5 1 4 8 6 9 13 15 15 16 16 13 10 12 15 16 19 16 14 14 19 11 13 8 13 18 12 19 18 18 17 15 16
15 17 18 19 20 22 22 24 21 21 12 6 1 3 9 10 5 10 14 14 15 15 10 13 15 13 14 14 18 15 19 14 15 18 18 6 12 3 8 19 5 15 13 14 15
16 18 18 19 20 22 23 24 23 19 8 3 2 2 7 7 6 12 13 14 12 12 12 8 12 13 18 15 20 13 16 14 18 22 4 4 5 10 18 18 8 10 11 12 13
17 18 19 20 21 21 23 22 24 10 4 3 3 6 9 5 10 15 16 13 9 8 9 9 6 13 15 14 14 16 16 20 8 34 8 5 8 16 19 21 13 9 9 11 12
19 19 20 21 22 23 22 22 18 5 3 6 11 8 10 9 13 15 16 11 10 8 7 8 7 12 13 14 13 18 13 6 10 26 13 10 8 17 15 11 11 16 11 10 13
20 19 20 21 21 22 22 9 4 4 10 11 3 12 7 3 8 13 16 14 12 10 12 13 11 14 17 17 17 21 19 14 22 17 3 8 9 4 7 12 8 15 13 11 9
22 22 21 21 20 16 16 8 8 9 11 17 20 20 18 10 10 13 18 13 15 13 14 12 14 17 16 16 16 15 16 16 13 9 4 8 11 9 17 18 33 22 12 12 13
22 23 23 20 20 10 10 8 8 12 7 15 21 19 16 15 16 17 19 19 16 16 16 15 8 15 14 15 14 15 14 15 14 14 6 10 12 13 8 16 22 20 11 10 10
22 23 22 23 9 11 11 3 7 8 6 11 15 10 15 14 16 21 23 19 13 16 17 15 17 16 7 14 13 14 14 12 14 13 11 8 10 6 14 16 6 26 11 7 7
24 23 20 18 15 9 6 8 9 8 6 8 17 13 14 15 4 20 26 19 19 17 12 17 13 15 17 12 13 14 13 8 8 13 14 17 10 7 5 7 7 9 27 5 10
25 24 21 6 7 14 12 10 10 6 9 10 11 12 15 19 13 10 20 17 16 20 18 17 15 11 13 14 13 11 14 6 12 13 13 15 14 7 5 10 5 14 5 12 21
28 23 21 12 9 9 7 9 6 8 7 9 14 13 18 17 18 13 19 19 18 15 18 18 18 12 10 13 13 11 11 9 10 10 13 14 17 7 18 17 12 12 10 18 18
31 24 18 19 13 9 10 8 11 9 22 12 2 14 20 20 19 19 16 18 22 23 13 14 14 20 16 15 13 17 14 11 14 9 4 13 11 5 16 12 9 11 14 22 19
30 14 10 13 15 10 7 12 8 16 16 10 11 14 13 16 17 19 19 19 21 23 19 14 18 10 18 13 14 12 11 16 17 18 5 9 13 9 7 12 10 11 9 18 17
17 14 19 13 14 13 9 17 16 22 19 14 11 14 16 18 13 13 17 18 20 22 20 20 13 13 9 15 16 16 9 9 10 15 14 8 13 8 6 8 6 8 9 15 19
9 5 10 19 15 8 13 19 18 24 13 8 11 16 17 19 14 19 18 16 18 20 20 16 13 14 11 11 13 11 14 13 11 11 12 9 4 1 2 4 1 8 9 13 18
8 7 15 16 9 10 14 21 21 21 14 13 15 18 19 16 13 8 15 16 15 15 17 12 7 12 15 12 11 17 14 16 9 12 12 6 4 13 6 2 13 19 12 14 17
5 9 13 15 10 13 18 23 22 21 16 13 14 16 16 16 11 11 17 8 5 12 5 14 8 11 13 11 14 17 15 14 12 12 13 8 4 13 20 10 16 15 14 13 17
5 4 7 8 12 19 17 18 21 21 17 16 16 16 16 14 15 12 15 9 6 8 7 6 9 11 13 8 7 9 12 14 15 11 14 14 9 9 8 6 10 6 12 17 17
5 6 12 6 10 16 18 19 21 17 12 16 19 19 17 16 15 17 17 17 10 4 8 8 13 14 18 16 10 13 17 16 18 16 12 8 7 13 10 4 6 7 11 14 11
8 6 11 13 14 15 12 20 19 18 18 19 18 18 15 15 15 14 15 15 14 13 11 13 12 13 18 20 17 13 14 9 13 16 18 17 18 11 10 4 2 7 9 11 11
17 14 7 10 14 11 12 15 18 19 19 20 15 18 17 16 17 16 17 7 11 14 9 14 12 12 16 18 18 16 8 13 14 13 14 2 15 16 12 3 7 14 13 12 13
Wind_Direction
13 10 9 7 3 358 352 344 339 334 332 331 328 319 311 304 304 284 241 230 204 229 192 210 223 241 256 262 259 278 356 15 171 279 145 255 69 193 73 75 342 339 106 135 149
11 5 4 3 359 354 351 344 339 338 337 333 330 317 306 308 291 259 244 243 210 209 191 208 221 233 245 259 247 235 85 285 234 216 344 324 190 15 93 106 167 310 332 134 147
5 1 360 358 356 350 349 346 343 341 335 330 331 320 322 348 278 132 207 226 226 202 198 212 236 239 252 256 242 247 164 226 254 21 308 332 299 173 129 129 167 219 183 177 162
359 356 354 353 351 349 346 347 342 340 336 332 330 327 24 271 357 116 184 209 194 187 221 215 239 238 259 255 253 246 275 194 290 331 301 308 343 337 353 170 183 199 173 201 170
354 351 347 348 345 344 342 344 340 339 336 335 333 348 12 233 256 138 156 164 172 185 221 214 230 245 251 260 257 252 268 286 285 287 291 342 301 328 8 149 162 170 176 196 154
349 346 343 343 341 340 338 340 335 337 335 334 333 358 264 254 108 145 148 156 170 188 219 220 232 239 263 282 289 277 253 262 274 285 283 273 59 58 335 324 139 144 162 166 158
345 344 342 340 335 335 332 332 328 331 330 320 293 350 258 257 152 159 167 173 180 208 217 224 246 267 250 266 266 272 272 273 269 252 247 283 50 71 252 275 186 147 161 162 160
346 342 339 335 333 331 326 323 319 324 316 299 269 278 272 157 188 183 187 196 205 218 249 240 242 276 272 278 282 263 271 265 257 275 206 208 140 219 230 235 170 167 165 154 160
345 341 338 335 332 328 322 314 310 315 284 246 288 227 264 166 204 195 198 196 193 223 231 247 255 246 254 250 263 251 250 243 22 308 276 202 144 206 218 218 155 176 167 159 163
347 341 337 334 331 329 321 313 297 282 285 241 265 261 228 233 185 188 201 200 197 204 198 230 230 245 234 247 248 261 261 70 91 266 195 238 256 171 214 165 194 169 166 164 170
348 340 336 332 329 328 321 310 238 189 225 253 150 248 129 128 145 186 192 200 202 211 225 194 218 229 239 230 262 288 304 314 181 231 352 286 288 330 179 3 240 162 159 168 197
348 342 333 328 325 319 305 281 51 324 295 271 261 252 258 168 191 197 189 197 203 218 219 229 233 247 250 263 273 282 287 286 292 276 231 290 297 56 89 88 288 297 164 178 182
346 341 334 324 318 292 265 322 333 322 269 279 239 226 210 212 228 187 192 205 202 225 223 229 244 210 242 260 256 267 270 285 276 300 223 260 259 255 119 153 232 279 163 194 181
343 336 335 327 302 330 279 41 322 329 277 255 192 220 201 200 234 238 185 209 237 228 228 247 241 259 252 244 252 258 253 249 283 292 278 292 283 250 156 195 252 314 168 189 148
341 331 326 327 300 281 1 319 320 274 282 123 162 130 185 195 146 204 174 211 224 231 237 241 235 240 245 242 236 256 275 309 299 275 274 269 272 57 92 82 91 341 280 156 132
336 328 319 315 267 267 302 304 282 233 240 190 143 194 192 209 237 174 189 206 232 247 242 249 245 232 243 238 249 250 268 246 272 266 262 250 256 182 125 207 202 207 136 114 97
329 320 304 280 239 352 304 266 221 236 214 237 177 200 209 207 218 201 197 198 219 222 240 237 242 227 244 257 224 228 255 241 245 233 244 278 235 238 157 165 179 164 124 108 121
325 312 282 254 258 277 265 228 235 248 241 303 279 202 207 217 196 204 204 217 218 233 243 220 233 218 210 229 246 207 240 242 245 229 326 357 325 11 116 108 113 132 158 130 136
327 304 238 251 228 229 240 220 224 240 285 265 224 247 258 241 251 198 205 219 218 221 243 258 249 214 210 192 240 244 214 252 272 284 225 190 227 180 160 118 126 139 177 135 149
322 294 250 208 184 197 229 241 238 256 293 295 266 256 240 248 218 240 206 217 228 218 224 257 274 281 204 193 204 249 226 231 240 265 278 205 214 147 94 55 132 162 183 135 142
288 248 140 155 176 215 223 233 242 264 299 272 276 262 267 264 230 217 241 228 216 224 226 223 255 274 244 204 237 206 243 253 256 239 251 277 71 105 175 223 267 216 173 148 141
291 247 157 168 200 224 232 237 262 266 239 231 264 281 285 279 281 264 258 245 223 209 218 216 233 243 263 191 229 260 227 230 244 246 267 290 160 165 142 6 232 233 152 156 150
283 266 174 201 232 231 235 247 249 253 255 250 233 256 264 277 282 258 262 297 357 186 274 205 214 250 255 243 194 217 235 219 227 273 282 293 247 172 147 226 207 140 148 131 130
279 246 227 198 245 260 263 252 234 242 252 235 252 236 258 246 255 261 264 262 168 259 23 350 274 223 243 247 9 226 242 253 249 229 244 248 103 75 343 19 26 351 133 117 134
245 266 353 243 223 233 255 267 273 229 204 247 260 247 231 244 242 236 251 275 175 184 253 253 261 259 247 279 265 273 241 217 247 240 257 285 158 178 154 77 14 355 113 130 125
307 344 343 304 311 296 271 242 256 273 224 225 236 255 236 251 240 244 238 258 277 185 212 248 245 261 271 278 265 225 257 274 225 244 248 257 103 163 145 211 145 252 160 158 151
355 330 306 294 286 272 276 269 240 261 275 241 215 236 245 240 252 255 260 300 277 271 212 218 244 240 255 253 265 271 257 282 254 263 280 314 150 163 178 147 213 193 181 161 130